This demonstration page uses our WeatherBlox Daily Observations layout. Learn more.

Left ArrowRight Arrow

Hourly Observations for February 2, 2016

Temp ( °F °C ) Dew Point ( °F °C ) Humidity (%) Winds ( mph kmh ) Pressure ( in mb ) Visibility ( mi km ) Precip ( " mm )
12:14 am 00:14 Clear 30 -1 30 -1 100 100 E 3 6 30.15 1021 3 5 N/A
12:34 am 00:34 Clear 30 -1 28 -2 93 93 N N/A 30.15 1021 3 4 N/A
12:55 am 00:55 Clear 30 -1 30 -1 100 100 N N/A 30.18 1022 3 4 N/A
1:14 am 01:14 Mostly Cloudy 28 -2 28 -2 100 100 N N/A 30.18 1022 1 2 N/A
1:34 am 01:34 Mostly Cloudy 27 -3 27 -3 100 100 N N/A 30.15 1021 0 0 N/A
1:55 am 01:55 Mostly Cloudy 27 -3 27 -3 100 100 NE 3 6 30.15 1021 2 2 N/A
2:14 am 02:14 Clear 28 -2 28 -2 100 100 NE 3 6 30.15 1021 3 4 N/A
2:34 am 02:34 Clear 28 -2 27 -3 93 93 NE 3 6 N/A 3 5 N/A
2:55 am 02:55 Clear 28 -2 27 -3 93 93 N N/A 30.18 1022 3 5 N/A
3:14 am 03:14 Clear 28 -2 28 -2 100 100 NE 3 6 30.15 1021 3 5 N/A
3:34 am 03:34 Clear 28 -2 27 -3 93 93 NE 6 9 30.15 1021 3 5 N/A
3:54 am 03:54 Clear 30 -1 28 -2 93 93 ENE 6 9 30.15 1021 4 6 N/A
4:14 am 04:14 Clear 32 undefined 30 -1 93 93 ENE 5 7 30.15 1021 5 8 N/A
4:35 am 04:35 Clear 30 -1 30 -1 100 100 E 5 7 30.15 1021 5 8 N/A
4:54 am 04:54 Clear 32 undefined 30 -1 93 93 ENE 6 9 30.15 1021 5 8 N/A
5:14 am 05:14 Clear 30 -1 30 -1 100 100 E 7 11 30.12 1020 7 11 N/A
5:35 am 05:35 Clear 32 undefined 30 -1 93 93 E 10 17 30.12 1020 7 11 N/A
5:54 am 05:54 Clear 34 1 32 undefined 93 93 E 10 17 30.12 1020 7 11 N/A
6:14 am 06:14 Clear 34 1 32 undefined 93 93 E 12 19 30.12 1020 10 16 N/A
6:35 am 06:35 Clear 34 1 32 undefined 93 93 ESE 13 20 30.12 1020 10 16 N/A
6:54 am 06:54 Clear 34 1 32 undefined 93 93 E 13 20 30.12 1020 10 16 N/A
7:14 am 07:14 Clear 34 1 32 undefined 93 93 E 14 22 30.12 1020 10 16 N/A
7:35 am 07:35 Clear 34 1 32 undefined 93 93 E 14 22 30.09 1019 10 16 N/A
7:54 am 07:54 Sunny 34 1 32 undefined 93 93 E 13 20 30.09 1019 10 16 N/A
8:15 am 08:15 Sunny 36 2 32 undefined 87 87 ESE 10 17 30.09 1019 7 11 N/A
8:34 am 08:34 Partly Cloudy 36 2 32 undefined 87 87 ESE 12 19 30.12 1020 7 11 N/A
8:54 am 08:54 Cloudy 37 3 34 1 87 87 ESE 12 19 30.12 1020 10 16 N/A
9:15 am 09:15 Cloudy 37 3 34 1 87 87 ESE 14 22 30.09 1019 10 16 N/A
9:34 am 09:34 Cloudy 37 3 34 1 87 87 ESE 16 26 30.09 1019 10 16 N/A
9:54 am 09:54 Partly Cloudy 37 3 34 1 87 87 ESE 13 20 30.03 1017 10 16 N/A
10:15 am 10:15 Mostly Cloudy 39 4 34 1 81 81 ESE 17 28 30.03 1017 10 16 N/A
10:34 am 10:34 Partly Cloudy 39 4 36 2 87 87 ESE 15 24 30.00 1016 10 16 N/A
10:54 am 10:54 Partly Cloudy 39 4 36 2 87 87 ESE 17 28 29.97 1015 10 16 N/A
11:15 am 11:15 Partly Cloudy 41 5 36 2 81 81 ESE 18 30 29.97 1015 10 16 N/A
11:34 am 11:34 Cloudy 41 5 36 2 81 81 ESE 21 33 29.94 1014 10 16 N/A
11:54 am 11:54 Partly Cloudy 43 6 37 3 81 81 ESE 18 30 29.91 1013 10 16 N/A
12:15 pm 12:15 Mostly Cloudy 45 7 37 3 76 76 SE 20 31 29.88 1012 10 16 N/A
12:34 pm 12:34 Cloudy 45 7 37 3 76 76 SE 18 30 29.88 1012 10 16 N/A
12:54 pm 12:54 Cloudy 46 8 39 4 76 76 SE 21 33 29.85 1011 10 16 N/A
1:15 pm 13:15 Cloudy 45 7 41 5 87 87 SE 14 22 29.83 1010 10 16 N/A
1:34 pm 13:34 Cloudy 46 8 41 5 82 82 SE 15 24 29.80 1009 10 16 N/A
1:54 pm 13:54 Cloudy 48 9 43 6 82 82 SE 20 31 29.80 1009 10 16 N/A
2:15 pm 14:15 Cloudy 48 9 45 7 87 87 SE 17 28 29.74 1007 10 16 N/A
2:34 pm 14:34 Cloudy 48 9 45 7 87 87 SE 16 26 29.71 1006 10 16 N/A
2:54 pm 14:54 Cloudy 48 9 46 8 94 94 SE 16 26 29.68 1005 10 16 N/A
3:15 pm 15:15 Mostly Cloudy 52 11 48 9 88 88 SE 20 31 29.68 1005 10 16 N/A
3:34 pm 15:34 Mostly Cloudy 54 12 48 9 82 82 SSE 20 31 29.68 1005 10 16 N/A
3:54 pm 15:54 Mostly Cloudy 54 12 48 9 82 82 S 17 28 29.68 1005 10 16 N/A
4:15 pm 16:15 Mostly Cloudy 54 12 48 9 82 82 SSE 16 26 29.68 1005 10 16 N/A
4:34 pm 16:34 Cloudy 55 13 48 9 77 77 SSE 14 22 29.65 1004 10 16 N/A
4:54 pm 16:54 Mostly Cloudy 55 13 50 10 82 82 SSE 15 24 29.65 1004 10 16 N/A
5:15 pm 17:15 Mostly Cloudy 55 13 52 11 88 88 SSE 15 24 29.65 1004 10 16 N/A
5:34 pm 17:34 Mostly Cloudy 55 13 52 11 88 88 SSE 15 24 29.65 1004 10 16 N/A
5:54 pm 17:54 Cloudy 57 14 52 11 82 82 SSE 14 22 29.65 1004 10 16 N/A
6:15 pm 18:15 Mostly Cloudy 59 15 54 12 82 82 SSE 22 35 29.62 1003 10 16 N/A
6:34 pm 18:34 Mostly Cloudy 57 14 54 12 88 88 SSE 20 31 29.62 1003 10 16 N/A
6:54 pm 18:54 Partly Cloudy 57 14 54 12 88 88 SSE 17 28 29.59 1002 10 16 N/A
7:15 pm 19:15 Partly Cloudy 59 15 55 13 88 88 SSE 18 30 29.56 1001 10 16 N/A
7:34 pm 19:34 Clear 59 15 55 13 88 88 S 15 24 29.59 1002 10 16 N/A
7:54 pm 19:54 Mostly Cloudy 59 15 55 13 88 88 S 20 31 29.59 1002 10 16 N/A
8:15 pm 20:15 Cloudy 59 15 55 13 88 88 SSE 17 28 29.56 1001 10 16 N/A
8:34 pm 20:34 Cloudy 59 15 55 13 88 88 S 15 24 29.56 1001 10 16 N/A
8:54 pm 20:54 Cloudy 59 15 55 13 88 88 S 23 37 29.59 1002 5 8 N/A
9:14 pm 21:14 Cloudy 57 14 57 14 100 100 S 22 35 29.59 1002 3 5 N/A
9:34 pm 21:34 Cloudy 57 14 57 14 100 100 S 23 37 29.59 1002 3 5 N/A
9:54 pm 21:54 Cloudy 59 15 57 14 94 94 SSE 25 41 29.56 1001 3 4 N/A
10:14 pm 22:14 Mostly Cloudy 59 15 57 14 94 94 SSE 24 39 29.50 999 7 11 N/A
10:34 pm 22:34 Partly Cloudy 59 15 57 14 94 94 S 20 31 29.53 1000 10 16 N/A
10:54 pm 22:54 Clear 59 15 57 14 94 94 S 18 30 29.53 1000 10 16 N/A
11:14 pm 23:14 Clear 59 15 55 13 88 88 S 14 22 29.53 1000 10 16 N/A
11:34 pm 23:34 Partly Cloudy 59 15 57 14 94 94 S 15 24 29.53 1000 10 16 N/A
11:54 pm 23:54 Partly Cloudy 59 15 57 14 94 94 S 12 19 29.53 1000 10 16 N/A

Powered by AerisWeather